EHI
0 0 0 0 0 0 0 0 0 0 0 0 0 0 0 0 0 0 0 0 0 0 0 0 0 0 0 0 0 0 0 0 0 0 0 0 0 0 0 0 0 0 0
0 0 0 0 0 0 0 0 0 0 0 0 0 0 0 0 0 0 0 0 0 0 0 0 0 0 0 0 0 0 0 0 0 0 0 0 0 0 0 0 0 0 0
0 0 0 0 0 0 0 0 0 0 0 0 0 0 0 0 0 0 0 0 0 0 0 0 0 0 0 0 0 0 0 0 0 0 0 0 0 0 0 0 0 0 0
0 0 0 0 0 0 0 0 0 0 0 0 0 0 0 0 0 0 0 0 0 0 0 0 0 0 0 0 0 0 0 0 0 0 0 0 0 0 0 0 0 0 0
0 0 0 0 0 0 0 0 0 0 0 0 0 0 0 0 0 0 0 0 0 0 0 0 0 0 0 0 0 0 0 0 0 0 0 0 0 0 0 0 0 0 0
0 0 0 0 0 0 0 0 0 0 0 0 0 0 0 0 0 0 0 0 0 0 0 0 0 0 0 0 0 0 0 0 0 0 0 0 0 0 0 0 0 0 0
0 0 0 0 0 0 0 0 0 0 0 0 0 0 0 0 0 0 0 0 0 0 0 0 0 0 0 0 0 0 0 0 0 0 0 0 0 0 0 0 0 0 0
0 0 0 0 0 0 0 0 0 0 0 0 0 0 0 0 0 0 0 0 0 0 0 0 0 0 0 0 0 0 0 0 0 0 0 0 0 0 0 0 0 0 0
0 0 0 0 0 0 0 0 0 0 0 0 0 0 0 0 0 0 0 0 0 0 0 0 0 0 0 0 0 0 0 0 0 0 0 0 0 0 0 0 0 0 0
0 0 0 0 0 0 0 0 0 0 0 0 0 0 0 0 0 0 0 0 0 0 0 0 0 0 0 0 0 0 0 0 0 0 0 0 0 0 0 0 0 0 0
0 0 0 0 0 0 0 0 0 0 0 0 0 0 0 0 0 0 0 0 0 0 0 0 0 0 0 0 0 0 0 0 0 0 0 0 0 0 0 0 0 0 0
0 0 0 0 0 0 0 0 0 0 0 0 0 0 0 0 0 0 0 0 0 0 0 0 0 0 0 0 0 0 0 0 0 0 0 0 0 0 0 0 0 0 0
0 0 0 0 0 0 0 0 0 0 0 0 0 0 0 0 0 0 0 0 0 0 0 0 0 0 0 0 0 0 0 0 0 0 0 0 0 0 0 0 0 0 0
0 0 0 0 0 0 0 0 0 0 0 0 0 0 0 0 0 0 0 0 0 0 0 0 0 0 0 0 0 0 0 0 0 0 0 0 0 0 0 0 0 0 0
0 0 0 0 0 0 0 0 0 0 0 0 0 0 0 0 0 0 0 0 0 0 0 0 0 0 0 0 0 0 0 0 0 0 0 0 0 0 0 0 0 0 0
0 0 0 0 0 0 0 0 0 0 0 0 0 0 0 0 0 0 0 0 0 0 0 0 0 0 0 0 0 0 0 0 0 0 0 0 0 0 0 0 0 0 0
0 0 0 0 0 0 0 0 0 0 0 0 0 0 0 0 0 0 0 0 0 0 0 0 0 0 0 0 0 0 0 0 0 0 0 0 0 0 0 0 0 0 0
0 0 0 0 0 0 0 0 0 0 0 0 0 0 0 0 0 0 0 0 0 0 0 0 0 0 0 0 0 0 0 0 0 0 0 0 0 0 0 0 0 0 0
0 0 0 0 0 0 0 0 0 0 0 0 0 0 0 0 0 0 0 0 0 0 0 0 0 0 0 0 0 0 0 0 0 0 0 0 0 0 0 0 0 0 0
0 0 0 0 0 0 0 0 0 0 0 0 0 0 0 0 0 0 0 0 0 0 0 0 0 0 0 0 0 0 0 0 0 0 0 0 0 0 0 0 0 0 0
0 0 0 0 0 0 0 0 0 0 0 0 0 0 0 0 0 0 0 0 0 0 0 0 0 0 0 0 0 0 0 0 0 0 0 0 0 0 0 0 0 0 0
0 0 0 0 0 0 0 0 0 0 0 0 0 0 0 0 0 0 0 0 0 0 0 0 0 0 0 0 0 0 0 0 0 0 0 0 0 0 0 0 0 0 0
0 0 0 0 0 0 0 0 0 0 0 0 0 0 0 0 0 0 0 0 0 0 0 0 0 0 0 0 0 0 0 0 0 0 0 0 0 0 0 0 0 0 0
0 0 0 0 0 0 0 0 0 0 0 0 0 0 0 0 0 0 0 0 0 0 0 0 0 0 0 0 0 0 0 0 0 0 0 0 0 0 0 0 0 0 0
0 0 0 0 0 0 0 0 0 0 0 0 0 0 0 0 0 0 0 0 0 0 0 0 0 0 0 0 0 0 0 0 0 0 0 0 0 0 0 0 0 0 0
0 0 0 0 0 0 0 0 0 0 0 0 0 0 0 0 0 0 0 0 0 0 0 0 0 0 0 0 0 0 0 0 0 0 0 0 0 0 0 0 0 0 0
Wind_Speed
6 6 5 5 5 4 4 4 4 3 3 3 3 2 2 1 1 0 0 0 1 1 1 1 2 1 1 2 1 1 1 2 2 0 1 2 2 3 3 2 3 2 2
6 6 6 5 4 5 5 5 4 4 3 3 3 3 2 2 2 2 1 1 1 0 0 0 1 1 2 1 1 2 1 1 2 2 1 2 2 2 2 3 3 3 2
5 5 5 5 6 6 6 5 5 4 4 3 3 4 4 3 3 3 2 2 2 2 1 1 1 1 0 1 1 1 1 1 2 2 1 1 2 2 2 3 3 3 3
5 5 6 7 7 7 6 5 5 5 4 4 4 4 4 4 3 3 3 3 2 2 2 2 2 2 2 2 1 1 1 2 2 2 1 1 1 2 2 2 2 3 3
5 6 7 6 5 5 6 6 5 5 6 5 4 4 4 4 4 5 4 4 3 2 2 2 3 4 5 3 2 2 2 2 2 2 1 1 0 1 0 0 1 1 2
5 7 6 5 5 6 6 6 5 6 5 5 5 5 5 5 7 9 7 4 4 4 3 3 3 3 4 5 5 5 5 4 3 2 2 2 1 1 1 1 1 1 1
5 5 5 5 6 7 6 6 7 7 6 6 6 6 6 7 9 9 10 6 5 5 4 3 3 3 4 2 2 3 3 4 5 4 4 3 3 3 3 1 1 1 1
3 4 4 5 6 6 5 7 7 6 6 6 7 7 6 8 11 10 10 6 5 5 5 5 4 4 4 4 3 2 1 2 3 3 4 3 3 3 3 3 3 1 1
4 5 5 5 6 6 7 8 7 6 6 6 5 7 7 8 10 11 9 4 4 5 5 5 5 5 7 8 5 4 2 2 2 4 4 3 3 4 4 3 2 2 0
6 7 6 5 6 7 8 8 6 6 7 7 6 7 8 8 10 12 11 5 5 4 4 4 8 8 8 9 6 5 5 3 2 2 1 1 1 1 4 3 3 2 1
8 7 6 5 6 7 7 6 5 6 6 6 7 6 7 8 9 12 12 6 6 5 4 4 5 10 9 9 9 6 7 5 3 3 2 2 2 1 1 1 2 2 2
7 7 7 6 6 5 5 5 5 6 6 6 6 6 5 6 8 9 13 12 10 6 6 5 5 9 9 8 7 7 8 6 4 3 3 2 1 1 1 1 2 2 2
8 8 8 7 5 5 4 5 4 5 6 6 6 7 6 5 6 11 12 13 14 7 5 8 8 8 7 5 6 8 7 5 4 3 3 2 1 1 1 2 2 3 3
7 8 8 7 7 5 4 4 4 5 6 7 7 8 6 5 5 5 5 6 9 7 5 6 8 7 5 4 4 4 4 4 5 4 3 2 2 2 2 2 2 2 2
7 7 7 6 6 6 5 5 6 7 8 8 8 8 7 8 11 13 9 7 7 7 6 3 3 3 3 3 3 3 3 4 3 3 3 3 3 2 2 2 2 2 2
6 6 6 6 6 5 6 6 7 9 11 13 12 9 9 11 12 16 17 14 14 16 9 5 5 6 6 6 5 4 3 4 4 4 4 4 4 3 3 2 2 2 2
6 7 5 6 6 6 6 6 8 7 8 10 11 12 12 11 13 15 17 15 16 17 7 6 7 7 7 6 6 5 5 4 4 5 4 4 4 4 3 3 2 2 1
6 8 8 6 6 6 6 6 6 6 7 6 7 11 12 12 12 14 15 12 8 10 6 7 8 7 7 7 7 6 5 5 4 5 5 5 4 4 3 3 2 2 2
7 5 6 6 6 6 6 6 6 7 7 6 4 5 8 9 10 12 15 8 9 9 8 7 7 7 7 7 7 7 7 6 6 5 5 5 5 4 4 3 3 3 2
6 12 11 6 6 6 6 6 6 6 6 6 6 5 3 4 5 7 9 8 8 8 9 9 8 8 8 8 7 7 7 6 7 5 5 5 5 4 5 5 4 3 2
6 8 14 9 6 7 7 7 6 6 7 7 7 6 9 8 8 9 9 9 9 9 9 9 8 8 8 8 8 8 9 7 7 6 6 5 5 4 4 4 3 3 2
6 6 6 7 7 7 7 7 7 7 8 9 7 6 11 8 7 7 8 9 8 7 8 8 8 9 9 10 10 9 9 8 8 7 7 6 5 5 4 4 3 3 2
7 8 7 7 7 10 9 7 7 8 8 8 7 6 7 8 8 8 8 7 7 7 7 8 8 8 7 8 9 10 10 10 9 9 8 7 6 5 5 4 4 3 3
7 8 9 8 8 7 8 9 8 8 8 8 8 8 8 8 8 9 8 7 7 7 7 8 9 11 13 10 7 7 7 8 9 9 11 9 7 6 5 4 4 3 3
7 8 9 9 8 8 8 9 9 9 9 8 8 8 7 7 8 8 7 7 8 9 10 9 8 10 14 14 11 9 13 15 13 9 8 8 8 7 5 5 4 3 3
8 9 9 8 8 9 9 9 9 9 9 9 8 8 8 7 7 7 7 7 8 9 10 9 10 12 14 13 14 16 18 17 16 15 9 7 7 6 6 4 4 3 3
Wind_Direction
202 203 205 209 209 206 213 226 226 232 228 227 224 222 225 233 233 180 206 58 58 26 27 52 36 38 47 40 55 73 83 115 128 63 2 356 26 38 33 42 50 49 41
205 201 208 210 203 209 222 226 218 224 227 225 216 217 224 218 206 200 211 176 158 150 351 53 7 54 53 41 55 69 77 92 129 133 28 20 30 19 33 43 36 42 34
200 201 209 211 210 217 225 223 214 216 222 217 205 216 226 221 210 207 200 204 203 206 205 199 221 127 68 44 64 70 66 76 94 123 99 36 27 17 38 36 33 20 22
201 204 213 217 216 220 222 219 215 210 212 215 214 219 223 218 210 207 198 202 211 222 218 209 207 193 197 182 146 135 113 96 94 103 97 52 34 9 51 44 25 14 8
202 212 224 224 219 220 221 220 215 212 216 215 215 221 218 212 213 203 200 200 202 218 229 224 222 215 211 198 179 172 146 129 120 117 118 87 27 40 61 31 51 355 359
213 223 227 222 218 220 224 219 214 217 218 211 213 215 217 223 219 207 195 197 201 206 220 234 240 233 228 219 207 186 173 162 163 156 163 175 210 202 169 138 116 55 346
228 237 231 222 225 227 225 216 217 218 212 213 217 212 221 231 231 222 208 193 201 210 214 217 225 215 205 193 207 191 197 197 182 168 173 196 199 200 169 159 171 170 224
256 257 247 231 234 233 223 223 223 214 209 214 217 215 220 233 230 224 213 197 204 214 213 208 210 219 204 185 172 169 200 224 205 183 186 202 202 187 173 171 168 156 302
308 283 267 246 241 233 226 229 223 212 214 213 211 209 214 232 227 219 204 183 202 218 219 213 208 215 218 191 170 180 206 256 231 187 186 194 193 175 156 125 124 115 357
315 298 278 254 243 238 235 232 221 212 218 214 217 211 212 224 226 219 202 183 200 214 217 222 220 216 216 193 179 180 198 219 181 155 151 131 115 141 162 159 160 153 166
317 312 304 273 251 245 242 235 222 214 215 215 220 220 216 222 227 222 204 189 198 203 207 213 217 214 211 202 190 191 203 183 163 154 136 111 87 85 96 145 156 158 163
329 323 317 304 280 266 245 241 223 209 212 218 220 228 226 223 220 222 211 203 195 191 204 206 205 202 204 200 194 197 188 160 141 141 137 142 136 130 109 106 117 116 112
335 332 321 318 304 284 255 242 232 214 215 221 217 226 229 218 221 220 213 207 200 194 201 194 191 190 186 187 190 180 166 152 148 153 167 175 169 149 114 98 74 81 73
330 328 326 322 319 307 281 252 236 226 225 224 221 226 227 217 212 209 205 201 196 194 187 184 179 173 163 156 153 157 155 163 163 165 162 146 124 113 97 91 90 76 76
323 322 324 318 312 310 293 265 252 242 231 227 228 220 213 222 221 203 191 191 185 180 155 138 142 149 161 160 148 146 147 147 149 144 143 140 134 120 102 88 96 90 100
320 319 317 314 310 307 304 300 273 263 263 249 241 228 228 228 215 199 198 195 183 167 153 167 181 183 182 180 173 166 162 163 160 151 146 146 144 138 124 100 94 108 116
302 305 305 308 306 306 302 299 301 299 274 260 250 238 231 225 210 198 195 189 180 169 171 183 186 188 186 181 177 172 173 170 159 153 151 150 144 138 131 126 119 112 115
292 299 303 295 295 294 290 286 284 287 292 284 260 243 235 225 210 198 184 165 178 186 191 188 190 187 183 181 178 173 164 156 154 154 151 151 149 144 141 144 146 148 153
287 285 285 283 286 285 284 282 280 277 275 278 278 261 235 223 210 196 175 183 189 195 196 193 188 184 181 178 175 170 165 164 162 158 156 155 153 146 149 154 156 160 155
279 288 297 288 287 288 284 281 280 278 274 268 260 252 211 191 202 197 197 201 199 197 193 192 188 184 179 174 169 165 162 161 161 159 158 157 156 154 158 162 165 169 182
276 282 291 292 281 282 279 275 275 274 272 266 259 243 215 215 213 209 207 206 204 199 193 188 183 181 177 170 167 166 165 166 166 164 161 159 157 156 159 161 167 173 179
272 270 268 272 275 276 277 271 269 270 272 269 265 250 230 226 222 216 213 212 208 201 190 182 181 180 177 173 170 167 167 167 167 164 162 160 159 158 156 159 163 169 181
267 270 270 269 269 276 280 274 267 267 270 271 261 246 234 230 225 221 218 210 198 192 185 179 177 175 173 171 170 168 169 173 171 165 161 160 160 162 161 166 172 176 193
266 269 270 271 269 268 271 274 270 266 266 268 261 247 238 233 226 220 215 204 193 187 181 179 178 175 169 166 165 164 162 158 156 160 158 159 160 161 160 164 172 182 197
266 267 269 269 268 267 269 273 271 267 264 266 263 252 242 236 229 219 209 197 189 183 179 175 173 171 169 166 163 162 158 153 151 150 149 150 155 158 161 166 173 181 198
265 266 267 267 265 264 265 269 268 265 262 262 262 251 238 232 226 213 201 192 187 182 177 175 173 169 166 166 162 158 154 152 150 147 144 145 150 157 161 167 178 188 204